,,,PA_Meas_PMT16A,,PR_Meas_QMR101_102,,RH_Meas_QMH101,,SR_Meas_QMS101,,TA_Meas_QMH101,,GenWind,,GenWind,
date,time,status,PA,status,PR,status,RH,status,SR,status,TA,status,DirAvg,status,SpdAvg,
2012-05-01, 00:00:04,VALID,999.72,VALID,0,VALID,95.1643,VALID,0,VALID,24.0134,VALID,137,VALID,0.305469,
2012-05-01, 00:01:04,VALID,999.694,VALID,0,VALID,95.1566,VALID,0,VALID,23.9726,VALID,138,VALID,0.220703,
2012-05-01, 00:02:04,VALID,999.669,VALID,0,VALID,95.1261,VALID,0,VALID,23.9939,VALID,138,VALID,0.140234,
2012-05-01, 00:03:04,VALID,999.646,VALID,0,VALID,95.1337,VALID,0,VALID,23.9531,VALID,138,VALID,0,
2012-05-01, 00:04:04,VALID,999.642,VALID,0,VALID,95.1108,VALID,0,VALID,23.9744,VALID,138,VALID,0,
2012-05-01, 00:05:04,VALID,999.637,VALID,0,VALID,95.1261,VALID,0,VALID,23.9744,VALID,138,VALID,0,
2012-05-01, 00:06:04,VALID,999.625,VALID,0,VALID,95.149,VALID,0,VALID,23.9531,VALID,138,VALID,0,
2012-05-01, 00:07:04,VALID,999.6,VALID,0,VALID,95.149,VALID,0,VALID,23.9549,VALID,138,VALID,0.0914062,
2012-05-01, 00:08:04,VALID,999.668,VALID,0,VALID,95.1261,VALID,0,VALID,23.9354,VALID,138,VALID,0,
2012-05-01, 00:09:04,VALID,999.643,VALID,0,VALID,95.1108,VALID,0,VALID,23.8963,VALID,138,VALID,0.132422,
2012-05-01, 00:10:04,VALID,999.618,VALID,0,VALID,95.1185,VALID,0,VALID,23.8963,VALID,138,VALID,0.357031,
2012-05-01, 00:11:04,VALID,999.608,VALID,0,VALID,95.1414,VALID,0,VALID,23.9159,VALID,138,VALID,0.191406,
2012-05-01, 00:12:04,VALID,999.551,VALID,0,VALID,95.1643,VALID,0,VALID,23.9354,VALID,138,VALID,0.298828,
2012-05-01, 00:13:04,VALID,999.563,VALID,0,VALID,95.2024,VALID,0,VALID,23.9744,VALID,138,VALID,0.337891,
2012-05-01, 00:14:04,VALID,999.537,VALID,0,VALID,95.2024,VALID,0,VALID,23.9744,VALID,138,VALID,0.290234,
2012-05-01, 00:15:04,VALID,999.469,VALID,0,VALID,95.2329,VALID,0,VALID,23.9744,VALID,138,VALID,0.395312,
2012-05-01, 00:16:04,VALID,999.461,VALID,0,VALID,95.1948,VALID,0,VALID,23.9159,VALID,137,VALID,0.403906,
2012-05-01, 00:17:04,VALID,999.446,VALID,0,VALID,95.1566,VALID,0,VALID,23.8768,VALID,137,VALID,0.3375,
2012-05-01, 00:18:04,VALID,999.417,VALID,0,VALID,95.1795,VALID,0,VALID,23.8768,VALID,138,VALID,0.226563,
2012-05-01, 00:19:04,VALID,999.401,VALID,0,VALID,95.2024,VALID,0,VALID,23.8786,VALID,137,VALID,0.174219,
2012-05-01, 00:20:04,VALID,999.394,VALID,0,VALID,95.2024,VALID,0,VALID,23.8555,VALID,138,VALID,0.112891,
2012-05-01, 00:21:04,VALID,999.404,VALID,0,VALID,95.2405,VALID,0,VALID,23.8555,VALID,138,VALID,0,
2012-05-01, 00:22:04,VALID,999.385,VALID,0,VALID,95.2253,VALID,0,VALID,23.8573,VALID,138,VALID,0,
2012-05-01, 00:23:04,VALID,999.372,VALID,0,VALID,95.2329,VALID,0,VALID,23.8183,VALID,137,VALID,0,
2012-05-01, 00:24:04,VALID,999.367,VALID,0,VALID,95.2329,VALID,0,VALID,23.7988,VALID,137,VALID,0,
2012-05-01, 00:25:04,VALID,999.375,VALID,0,VALID,95.2482,VALID,0,VALID,23.8183,VALID,138,VALID,0,
2012-05-01, 00:26:04,VALID,999.383,VALID,0,VALID,95.2711,VALID,0,VALID,23.8165,VALID,138,VALID,0,
2012-05-01, 00:27:04,VALID,999.353,VALID,0,VALID,95.2863,VALID,0,VALID,23.8378,VALID,137,VALID,0,
2012-05-01, 00:28:04,VALID,999.356,VALID,0,VALID,95.3016,VALID,0,VALID,23.8573,VALID,138,VALID,0,
2012-05-01, 00:29:04,VALID,999.292,VALID,0,VALID,95.3321,VALID,0,VALID,23.8768,VALID,137,VALID,0.344922,
2012-05-01, 00:30:04,VALID,999.274,VALID,0,VALID,95.3474,VALID,0,VALID,23.8768,VALID,137,VALID,0.538281,
2012-05-01, 00:31:04,VALID,999.245,VALID,0,VALID,95.3703,VALID,0,VALID,23.8963,VALID,137,VALID,0.748828,
2012-05-01, 00:32:04,VALID,999.199,VALID,0,VALID,95.3855,VALID,0,VALID,23.9567,VALID,137,VALID,0.894141,
2012-05-01, 00:33:04,VALID,999.211,VALID,0,VALID,95.3703,VALID,0,VALID,23.9354,VALID,137,VALID,0.935547,
2012-05-01, 00:34:04,VALID,999.182,VALID,0,VALID,95.4008,VALID,0,VALID,23.9354,VALID,137,VALID,0.864062,
2012-05-01, 00:35:04,VALID,999.169,VALID,0,VALID,95.3855,VALID,0,VALID,23.9354,VALID,124,VALID,0.941406,
2012-05-01, 00:36:04,VALID,999.196,VALID,0,VALID,95.355,VALID,0,VALID,23.8963,VALID,120,VALID,0.94375,
2012-05-01, 00:37:04,VALID,999.198,VALID,0,VALID,95.355,VALID,0,VALID,23.8768,VALID,119,VALID,0.75625,
2012-05-01, 00:38:04,VALID,999.195,VALID,0,VALID,95.3397,VALID,0,VALID,23.8573,VALID,119,VALID,0.683203,
2012-05-01, 00:39:04,VALID,999.138,VALID,0,VALID,95.3245,VALID,0,VALID,23.8378,VALID,119,VALID,0.664844,
2012-05-01, 00:40:04,VALID,999.16,VALID,0,VALID,95.3092,VALID,0,VALID,23.8183,VALID,119,VALID,0.597656,
2012-05-01, 00:41:04,VALID,999.164,VALID,0,VALID,95.3168,VALID,0,VALID,23.8378,VALID,119,VALID,0.406641,
2012-05-01, 00:42:04,VALID,999.125,VALID,0,VALID,95.3016,VALID,0,VALID,23.8183,VALID,119,VALID,0.25,
2012-05-01, 00:43:04,VALID,999.106,VALID,0,VALID,95.3016,VALID,0,VALID,23.7988,VALID,119,VALID,0,
2012-05-01, 00:44:04,VALID,999.125,VALID,0,VALID,95.3016,VALID,0,VALID,23.7597,VALID,119,VALID,0,
2012-05-01, 00:45:04,VALID,999.125,VALID,0,VALID,95.2863,VALID,0,VALID,23.7207,VALID,119,VALID,0.305078,
2012-05-01, 00:46:04,VALID,999.131,VALID,0,VALID,95.2634,VALID,0,VALID,23.7012,VALID,119,VALID,0.589063,
2012-05-01, 00:47:04,VALID,999.129,VALID,0,VALID,95.2787,VALID,0,VALID,23.7012,VALID,119,VALID,0.678516,
2012-05-01, 00:48:04,VALID,999.121,VALID,0,VALID,95.2787,VALID,0,VALID,23.6817,VALID,119,VALID,0.498437,
2012-05-01, 00:49:04,VALID,999.085,VALID,0,VALID,95.2787,VALID,0,VALID,23.6817,VALID,119,VALID,0.498047,
2012-05-01, 00:50:04,VALID,999.075,VALID,0,VALID,95.3092,VALID,0,VALID,23.6817,VALID,55,VALID,0.604688,
2012-05-01, 00:51:04,VALID,999.069,VALID,0,VALID,95.3245,VALID,0,VALID,23.6817,VALID,55,VALID,0.492578,
2012-05-01, 00:52:04,VALID,999.06,VALID,0,VALID,95.3168,VALID,0,VALID,23.6817,VALID,55,VALID,0.445703,
2012-05-01, 00:53:04,VALID,999.022,VALID,0,VALID,95.3168,VALID,0,VALID,23.6622,VALID,55,VALID,0.618359,
2012-05-01, 00:54:04,VALID,999.016,VALID,0,VALID,95.3397,VALID,0,VALID,23.6232,VALID,55,VALID,0.609766,
2012-05-01, 00:55:04,VALID,998.983,VALID,0,VALID,95.3092,VALID,0,VALID,23.5841,VALID,55,VALID,0.557031,
2012-05-01, 00:56:04,VALID,998.984,VALID,0,VALID,95.3245,VALID,0,VALID,23.5841,VALID,55,VALID,0.464453,
2012-05-01, 00:57:04,VALID,998.997,VALID,0,VALID,95.3168,VALID,0,VALID,23.5451,VALID,55,VALID,0.365625,
2012-05-01, 00:58:04,VALID,998.988,VALID,0,VALID,95.3474,VALID,0,VALID,23.5451,VALID,55,VALID,0.216016,
2012-05-01, 00:59:04,VALID,999.01,VALID,0,VALID,95.3321,VALID,0,VALID,23.5451,VALID,55,VALID,0,
2012-05-01, 01:00:04,VALID,998.981,VALID,0,VALID,95.355,VALID,0,VALID,23.5451,VALID,55,VALID,0,
2012-05-01, 01:01:04,VALID,998.975,VALID,0,VALID,95.3703,VALID,0,VALID,23.5256,VALID,55,VALID,0,
2012-05-01, 01:02:04,VALID,998.979,VALID,0,VALID,95.3779,VALID,0,VALID,23.5451,VALID,55,VALID,0.201562,
2012-05-01, 01:03:04,VALID,998.956,VALID,0,VALID,95.3626,VALID,0,VALID,23.5451,VALID,55,VALID,0.415625,
2012-05-01, 01:04:04,VALID,998.956,VALID,0,VALID,95.3931,VALID,0,VALID,23.5646,VALID,55,VALID,0.53125,
2012-05-01, 01:05:04,VALID,998.981,VALID,0,VALID,95.4008,VALID,0,VALID,23.6036,VALID,107,VALID,0.805469,
2012-05-01, 01:06:04,VALID,998.989,VALID,0,VALID,95.4237,VALID,0,VALID,23.6036,VALID,111,VALID,0.840625,
2012-05-01, 01:07:04,VALID,998.982,VALID,0,VALID,95.416,VALID,0,VALID,23.5841,VALID,118,VALID,0.688672,
2012-05-01, 01:08:04,VALID,998.954,VALID,0,VALID,95.4237,VALID,0,VALID,23.5841,VALID,118,VALID,0.489844,
2012-05-01, 01:09:04,VALID,998.956,VALID,0,VALID,95.4237,VALID,0,VALID,23.5841,VALID,118,VALID,0.23125,
2012-05-01, 01:10:04,VALID,998.932,VALID,0,VALID,95.4237,VALID,0,VALID,23.5646,VALID,118,VALID,0,
2012-05-01, 01:11:04,VALID,998.916,VALID,0,VALID,95.416,VALID,0,VALID,23.5451,VALID,118,VALID,0.00195313,
2012-05-01, 01:12:04,VALID,998.916,VALID,0,VALID,95.4389,VALID,0,VALID,23.5256,VALID,118,VALID,0.283594,
2012-05-01, 01:13:04,VALID,998.889,VALID,0,VALID,95.4313,VALID,0,VALID,23.5043,VALID,118,VALID,0.431641,
2012-05-01, 01:14:04,VALID,998.866,VALID,0,VALID,95.4313,VALID,0,VALID,23.5043,VALID,118,VALID,0.559766,
2012-05-01, 01:15:04,VALID,998.855,VALID,0,VALID,95.4237,VALID,0,VALID,23.4848,VALID,48,VALID,0.558203,
2012-05-01, 01:16:04,VALID,998.804,VALID,0,VALID,95.416,VALID,0,VALID,23.4866,VALID,48,VALID,0.344531,
2012-05-01, 01:17:04,VALID,998.795,VALID,0,VALID,95.4237,VALID,0,VALID,23.5061,VALID,48,VALID,0,
2012-05-01, 01:18:04,VALID,998.726,VALID,0,VALID,95.4237,VALID,0,VALID,23.4653,VALID,48,VALID,0,
2012-05-01, 01:19:04,VALID,998.726,VALID,0,VALID,95.416,VALID,0,VALID,23.4671,VALID,48,VALID,0,
2012-05-01, 01:20:04,VALID,998.721,VALID,0,VALID,95.4313,VALID,0,VALID,23.428,VALID,48,VALID,0.406641,
2012-05-01, 01:21:04,VALID,998.675,VALID,0,VALID,95.4237,VALID,0,VALID,23.428,VALID,139,VALID,1.08828,
2012-05-01, 01:22:04,VALID,998.633,VALID,0,VALID,95.4389,VALID,0,VALID,23.4866,VALID,139,VALID,1.10547,
2012-05-01, 01:23:04,VALID,998.649,VALID,0,VALID,95.4313,VALID,0,VALID,23.5238,VALID,139,VALID,1.11016,
2012-05-01, 01:24:04,VALID,998.64,VALID,0,VALID,95.4542,VALID,0,VALID,23.5841,VALID,141,VALID,1.2582,
2012-05-01, 01:25:04,VALID,998.636,VALID,0,VALID,95.4694,VALID,0,VALID,23.6036,VALID,141,VALID,1.03984,
2012-05-01, 01:26:04,VALID,998.666,VALID,0,VALID,95.4618,VALID,0,VALID,23.6232,VALID,141,VALID,0.825781,
2012-05-01, 01:27:04,VALID,998.625,VALID,0,VALID,95.4847,VALID,0,VALID,23.6019,VALID,143,VALID,0.692969,
2012-05-01, 01:28:04,VALID,998.673,VALID,0,VALID,95.4847,VALID,0,VALID,23.6622,VALID,157,VALID,0.796094,
2012-05-01, 01:29:04,VALID,998.669,VALID,0,VALID,95.4847,VALID,0,VALID,23.6799,VALID,154,VALID,1.19687,
2012-05-01, 01:30:04,VALID,998.657,VALID,0,VALID,95.4771,VALID,0,VALID,23.7207,VALID,156,VALID,0.975391,
2012-05-01, 01:31:04,VALID,998.666,VALID,0,VALID,95.4923,VALID,0,VALID,23.7616,VALID,146,VALID,0.590625,
2012-05-01, 01:32:04,VALID,998.673,VALID,0,VALID,95.4847,VALID,0,VALID,23.7402,VALID,143,VALID,0.676562,
2012-05-01, 01:33:04,VALID,998.685,VALID,0,VALID,95.4771,VALID,0,VALID,23.7402,VALID,139,VALID,0.500391,
2012-05-01, 01:34:04,VALID,998.678,VALID,0,VALID,95.4618,VALID,0,VALID,23.7402,VALID,139,VALID,0.391797,
2012-05-01, 01:35:04,VALID,998.709,VALID,0,VALID,95.4542,VALID,0,VALID,23.6994,VALID,139,VALID,0.150391,
2012-05-01, 01:36:04,VALID,998.705,VALID,0,VALID,95.4542,VALID,0,VALID,23.6994,VALID,139,VALID,0.225,
2012-05-01, 01:37:04,VALID,998.734,VALID,0,VALID,95.416,VALID,0,VALID,23.7012,VALID,139,VALID,0.230859,
2012-05-01, 01:38:04,VALID,998.743,VALID,0,VALID,95.4084,VALID,0,VALID,23.6622,VALID,139,VALID,0.0234375,
2012-05-01, 01:39:04,VALID,998.738,VALID,0,VALID,95.3779,VALID,0,VALID,23.6214,VALID,139,VALID,0.0875,
2012-05-01, 01:40:04,VALID,998.751,VALID,0,VALID,95.3397,VALID,0,VALID,23.6036,VALID,139,VALID,0,
2012-05-01, 01:41:04,VALID,998.752,VALID,0,VALID,95.3321,VALID,0,VALID,23.5646,VALID,139,VALID,0,
2012-05-01, 01:42:04,VALID,998.793,VALID,0,VALID,95.294,VALID,0,VALID,23.5451,VALID,139,VALID,0,
2012-05-01, 01:43:04,VALID,998.8,VALID,0,VALID,95.2787,VALID,0,VALID,23.5274,VALID,139,VALID,0,
2012-05-01, 01:44:04,VALID,998.785,VALID,0,VALID,95.2634,VALID,0,VALID,23.4848,VALID,139,VALID,0,
2012-05-01, 01:45:04,VALID,998.806,VALID,0,VALID,95.294,VALID,0,VALID,23.4653,VALID,139,VALID,0,
2012-05-01, 01:46:04,VALID,998.817,VALID,0,VALID,95.294,VALID,0,VALID,23.4866,VALID,139,VALID,0.0140625,
2012-05-01, 01:47:04,VALID,998.802,VALID,0,VALID,95.3016,VALID,0,VALID,23.4848,VALID,139,VALID,0,
2012-05-01, 01:48:04,VALID,998.783,VALID,0,VALID,95.3016,VALID,0,VALID,23.4866,VALID,139,VALID,0,
2012-05-01, 01:49:04,VALID,998.794,VALID,0,VALID,95.2711,VALID,0,VALID,23.4653,VALID,139,VALID,0,
2012-05-01, 01:50:04,VALID,998.781,VALID,0,VALID,95.3092,VALID,0,VALID,23.4866,VALID,139,VALID,0,
2012-05-01, 01:51:04,VALID,998.815,VALID,0,VALID,95.3474,VALID,0,VALID,23.5061,VALID,139,VALID,0,
2012-05-01, 01:52:04,VALID,998.838,VALID,0,VALID,95.3703,VALID,0,VALID,23.5256,VALID,139,VALID,0.366797,
2012-05-01, 01:53:04,VALID,998.832,VALID,0,VALID,95.3855,VALID,0,VALID,23.5451,VALID,139,VALID,0.300781,
2012-05-01, 01:54:04,VALID,998.845,VALID,0,VALID,95.4008,VALID,0,VALID,23.5646,VALID,139,VALID,0.278125,
2012-05-01, 01:55:04,VALID,998.889,VALID,0,VALID,95.3855,VALID,0,VALID,23.5646,VALID,139,VALID,0.296875,
2012-05-01, 01:56:04,VALID,998.894,VALID,0,VALID,95.3855,VALID,0,VALID,23.5646,VALID,139,VALID,0.347266,
2012-05-01, 01:57:04,VALID,998.91,VALID,0,VALID,95.4008,VALID,0,VALID,23.5646,VALID,139,VALID,0.234766,
2012-05-01, 01:58:04,VALID,998.931,VALID,0,VALID,95.4084,VALID,0,VALID,23.5451,VALID,54,VALID,0.780859,
2012-05-01, 01:59:04,VALID,998.948,VALID,0,VALID,95.4008,VALID,0,VALID,23.5451,VALID,54,VALID,0.589063,
2012-05-01, 02:00:04,VALID,998.956,VALID,0,VALID,95.4237,VALID,0,VALID,23.5256,VALID,54,VALID,0.719141,
2012-05-01, 02:01:04,VALID,998.96,VALID,0,VALID,95.4084,VALID,0,VALID,23.5043,VALID,54,VALID,0.653516,
2012-05-01, 02:02:04,VALID,998.985,VALID,0,VALID,95.4237,VALID,0,VALID,23.5256,VALID,54,VALID,0.652734,
2012-05-01, 02:03:04,VALID,998.993,VALID,0,VALID,95.4313,VALID,0,VALID,23.5043,VALID,54,VALID,0.673047,
2012-05-01, 02:04:04,VALID,999.016,VALID,0,VALID,95.4465,VALID,0,VALID,23.5256,VALID,54,VALID,0.732813,
2012-05-01, 02:05:04,VALID,999.011,VALID,0,VALID,95.4313,VALID,0,VALID,23.4866,VALID,54,VALID,0.456641,
2012-05-01, 02:06:04,VALID,998.975,VALID,0,VALID,95.4542,VALID,0,VALID,23.4653,VALID,54,VALID,0.287891,
2012-05-01, 02:07:04,VALID,998.965,VALID,0,VALID,95.4542,VALID,0,VALID,23.4475,VALID,54,VALID,0.025,
2012-05-01, 02:08:04,VALID,998.941,VALID,0,VALID,95.4237,VALID,0,VALID,23.428,VALID,54,VALID,0,
2012-05-01, 02:09:04,VALID,998.934,VALID,0,VALID,95.4237,VALID,0,VALID,23.428,VALID,54,VALID,0,
2012-05-01, 02:10:04,VALID,998.858,VALID,0,VALID,95.4237,VALID,0,VALID,23.3872,VALID,54,VALID,0,
2012-05-01, 02:11:04,VALID,998.832,VALID,0,VALID,95.4084,VALID,0,VALID,23.3677,VALID,54,VALID,0,
2012-05-01, 02:12:04,VALID,998.802,VALID,0,VALID,95.4313,VALID,0,VALID,23.4085,VALID,54,VALID,0,
2012-05-01, 02:13:04,VALID,998.771,VALID,0,VALID,95.4313,VALID,0,VALID,23.389,VALID,54,VALID,0,
2012-05-01, 02:14:04,VALID,998.771,VALID,0,VALID,95.4237,VALID,0,VALID,23.4085,VALID,54,VALID,0,
2012-05-01, 02:15:04,VALID,998.742,VALID,0,VALID,95.4313,VALID,0,VALID,23.4067,VALID,54,VALID,0,
2012-05-01, 02:16:04,VALID,998.711,VALID,0,VALID,95.4389,VALID,0,VALID,23.428,VALID,54,VALID,0,
2012-05-01, 02:17:04,VALID,998.736,VALID,0,VALID,95.4618,VALID,0,VALID,23.4458,VALID,54,VALID,0.184766,
2012-05-01, 02:18:04,VALID,998.707,VALID,0,VALID,95.4618,VALID,0,VALID,23.4458,VALID,54,VALID,0.435156,
2012-05-01, 02:19:04,VALID,998.69,VALID,0,VALID,95.4771,VALID,0,VALID,23.4475,VALID,54,VALID,0.479688,
2012-05-01, 02:20:04,VALID,998.705,VALID,0,VALID,95.4618,VALID,0,VALID,23.4475,VALID,54,VALID,0.557422,
2012-05-01, 02:21:04,VALID,998.681,VALID,0,VALID,95.4771,VALID,0,VALID,23.4475,VALID,54,VALID,0.510156,
2012-05-01, 02:22:04,VALID,998.722,VALID,0,VALID,95.4771,VALID,0,VALID,23.4475,VALID,54,VALID,0.376953,
2012-05-01, 02:23:04,VALID,998.709,VALID,0,VALID,95.4694,VALID,0,VALID,23.428,VALID,54,VALID,0.236719,
2012-05-01, 02:24:04,VALID,998.711,VALID,0,VALID,95.4618,VALID,0,VALID,23.4085,VALID,54,VALID,0,
2012-05-01, 02:25:04,VALID,998.683,VALID,0,VALID,95.4847,VALID,0,VALID,23.3677,VALID,54,VALID,0,
2012-05-01, 02:26:04,VALID,998.66,VALID,0,VALID,95.4694,VALID,0,VALID,23.3695,VALID,54,VALID,0,
2012-05-01, 02:27:04,VALID,998.641,VALID,0,VALID,95.4923,VALID,0,VALID,23.3482,VALID,54,VALID,0,
2012-05-01, 02:28:04,VALID,998.633,VALID,0,VALID,95.4771,VALID,0,VALID,23.3695,VALID,54,VALID,0.642187,
2012-05-01, 02:29:04,VALID,998.584,VALID,0,VALID,95.4618,VALID,0,VALID,23.3695,VALID,54,VALID,0.686719,
2012-05-01, 02:30:04,VALID,998.526,VALID,0,VALID,95.4618,VALID,0,VALID,23.3695,VALID,82,VALID,0.766797,
2012-05-01, 02:31:04,VALID,998.531,VALID,0,VALID,95.4923,VALID,0,VALID,23.3695,VALID,111,VALID,0.836719,
2012-05-01, 02:32:04,VALID,998.503,VALID,0,VALID,95.4847,VALID,0,VALID,23.35,VALID,111,VALID,0.924609,
2012-05-01, 02:33:04,VALID,998.497,VALID,0,VALID,95.4771,VALID,0,VALID,23.311,VALID,111,VALID,0.944531,
2012-05-01, 02:34:04,VALID,998.507,VALID,0,VALID,95.4694,VALID,0,VALID,23.311,VALID,116,VALID,0.905078,
2012-05-01, 02:35:04,VALID,998.508,VALID,0,VALID,95.4771,VALID,0,VALID,23.2915,VALID,135,VALID,0.800781,
2012-05-01, 02:36:04,VALID,998.509,VALID,0,VALID,95.4694,VALID,0,VALID,23.2915,VALID,139,VALID,0.567969,
2012-05-01, 02:37:04,VALID,998.528,VALID,0,VALID,95.4618,VALID,0,VALID,23.2915,VALID,139,VALID,0.318359,
2012-05-01, 02:38:04,VALID,998.549,VALID,0,VALID,95.4771,VALID,0,VALID,23.311,VALID,139,VALID,0.282031,
2012-05-01, 02:39:04,VALID,998.54,VALID,0,VALID,95.4542,VALID,0,VALID,23.3305,VALID,139,VALID,0.111328,
2012-05-01, 02:40:04,VALID,998.564,VALID,0,VALID,95.4771,VALID,0,VALID,23.3305,VALID,139,VALID,0,
2012-05-01, 02:41:04,VALID,998.57,VALID,0,VALID,95.4771,VALID,0,VALID,23.3287,VALID,139,VALID,0.110156,
2012-05-01, 02:42:04,VALID,998.604,VALID,0,VALID,95.4694,VALID,0,VALID,23.35,VALID,139,VALID,0.288672,
2012-05-01, 02:43:04,VALID,998.608,VALID,0,VALID,95.5076,VALID,0,VALID,23.3695,VALID,139,VALID,0.490234,
2012-05-01, 02:44:04,VALID,998.611,VALID,0,VALID,95.4847,VALID,0,VALID,23.3695,VALID,139,VALID,0.573438,
2012-05-01, 02:45:04,VALID,998.606,VALID,0,VALID,95.4847,VALID,0,VALID,23.3482,VALID,139,VALID,0.511719,
2012-05-01, 02:46:04,VALID,998.642,VALID,0,VALID,95.5,VALID,0,VALID,23.3482,VALID,47,VALID,0.667578,
2012-05-01, 02:47:04,VALID,998.592,VALID,0,VALID,95.4847,VALID,0,VALID,23.3677,VALID,47,VALID,0.564062,
2012-05-01, 02:48:04,VALID,998.618,VALID,0,VALID,95.5,VALID,0,VALID,23.3482,VALID,47,VALID,0.58125,
2012-05-01, 02:49:04,VALID,998.582,VALID,0,VALID,95.5076,VALID,0,VALID,23.3677,VALID,55,VALID,0.745313,
2012-05-01, 02:50:04,VALID,998.617,VALID,0,VALID,95.5,VALID,0,VALID,23.389,VALID,98,VALID,1.00625,
2012-05-01, 02:51:04,VALID,998.61,VALID,0,VALID,95.5152,VALID,0,VALID,23.428,VALID,100,VALID,0.987891,
2012-05-01, 02:52:04,VALID,998.554,VALID,0,VALID,95.5,VALID,0,VALID,23.4263,VALID,105,VALID,0.985156,
2012-05-01, 02:53:04,VALID,998.594,VALID,0,VALID,95.5,VALID,0,VALID,23.4458,VALID,105,VALID,0.721094,
2012-05-01, 02:54:04,VALID,998.594,VALID,0,VALID,95.5,VALID,0,VALID,23.4475,VALID,105,VALID,0.3875,
2012-05-01, 02:55:04,VALID,998.61,VALID,0,VALID,95.4847,VALID,0,VALID,23.4067,VALID,105,VALID,0.516016,
2012-05-01, 02:56:04,VALID,998.646,VALID,0,VALID,95.5,VALID,0,VALID,23.3872,VALID,105,VALID,0.219531,
2012-05-01, 02:57:04,VALID,998.666,VALID,0,VALID,95.5,VALID,0,VALID,23.3287,VALID,105,VALID,0.397266,
2012-05-01, 02:58:04,VALID,998.681,VALID,0,VALID,95.4694,VALID,0,VALID,23.2897,VALID,105,VALID,0.501953,
2012-05-01, 02:59:04,VALID,998.721,VALID,0,VALID,95.4771,VALID,0,VALID,23.311,VALID,23,VALID,0.821484,
2012-05-01, 03:00:04,VALID,998.747,VALID,0,VALID,95.4618,VALID,0,VALID,23.2507,VALID,352,VALID,0.708984,
2012-05-01, 03:01:04,VALID,998.74,VALID,0,VALID,95.4542,VALID,0,VALID,23.2312,VALID,351,VALID,0.873047,
2012-05-01, 03:02:04,VALID,998.75,VALID,0,VALID,95.4542,VALID,0,VALID,23.2117,VALID,341,VALID,0.734375,
2012-05-01, 03:03:04,VALID,998.781,VALID,0,VALID,95.4465,VALID,0,VALID,23.1921,VALID,341,VALID,0.771875,
2012-05-01, 03:04:04,VALID,998.805,VALID,0,VALID,95.4618,VALID,0,VALID,23.2117,VALID,341,VALID,0.666016,
2012-05-01, 03:05:04,VALID,998.807,VALID,0,VALID,95.4847,VALID,0,VALID,23.2312,VALID,341,VALID,0.490625,
2012-05-01, 03:06:04,VALID,998.824,VALID,0,VALID,95.4694,VALID,0,VALID,23.2507,VALID,341,VALID,0.66875,
2012-05-01, 03:07:04,VALID,998.874,VALID,0,VALID,95.4847,VALID,0,VALID,23.2702,VALID,341,VALID,0.383203,
2012-05-01, 03:08:04,VALID,998.888,VALID,0,VALID,95.4771,VALID,0,VALID,23.2702,VALID,341,VALID,0.447266,
2012-05-01, 03:09:04,VALID,998.899,VALID,0,VALID,95.5228,VALID,0,VALID,23.2897,VALID,341,VALID,0.410156,
2012-05-01, 03:10:04,VALID,998.932,VALID,0,VALID,95.5,VALID,0,VALID,23.311,VALID,341,VALID,0.3125,
2012-05-01, 03:11:04,VALID,998.912,VALID,0,VALID,95.5305,VALID,0.104696,VALID,23.3092,VALID,341,VALID,0.342969,
2012-05-01, 03:12:04,VALID,998.908,VALID,0,VALID,95.5076,VALID,0,VALID,23.3305,VALID,341,VALID,0.413672,
2012-05-01, 03:13:04,VALID,998.905,VALID,0,VALID,95.5076,VALID,0,VALID,23.3092,VALID,341,VALID,0.499609,
2012-05-01, 03:14:04,VALID,998.863,VALID,0,VALID,95.5228,VALID,0,VALID,23.35,VALID,341,VALID,0.434375,
2012-05-01, 03:15:04,VALID,998.833,VALID,0,VALID,95.5152,VALID,0,VALID,23.3287,VALID,341,VALID,0.1,
2012-05-01, 03:16:04,VALID,998.84,VALID,0,VALID,95.5305,VALID,0,VALID,23.3305,VALID,341,VALID,0,
2012-05-01, 03:17:04,VALID,998.803,VALID,0,VALID,95.5457,VALID,0,VALID,23.3287,VALID,341,VALID,0,
2012-05-01, 03:18:04,VALID,998.8,VALID,0,VALID,95.5457,VALID,0,VALID,23.3092,VALID,341,VALID,0,
2012-05-01, 03:19:04,VALID,998.792,VALID,0,VALID,95.561,VALID,0,VALID,23.2897,VALID,341,VALID,0,
2012-05-01, 03:20:04,VALID,998.803,VALID,0,VALID,95.5457,VALID,0,VALID,23.2897,VALID,341,VALID,0,
2012-05-01, 03:21:04,VALID,998.827,VALID,0,VALID,95.5305,VALID,0,VALID,23.3092,VALID,341,VALID,0,
2012-05-01, 03:22:04,VALID,998.836,VALID,0,VALID,95.5305,VALID,0,VALID,23.3482,VALID,341,VALID,1.03516,
2012-05-01, 03:23:04,VALID,998.827,VALID,0,VALID,95.5457,VALID,0,VALID,23.3677,VALID,341,VALID,1.14805,
2012-05-01, 03:24:04,VALID,998.835,VALID,0,VALID,95.5534,VALID,0,VALID,23.3482,VALID,341,VALID,1.29492,
2012-05-01, 03:25:04,VALID,998.857,VALID,0,VALID,95.5534,VALID,0,VALID,23.3287,VALID,343,VALID,1.2957,
2012-05-01, 03:26:04,VALID,998.834,VALID,0,VALID,95.561,VALID,0,VALID,23.35,VALID,166,VALID,1.17227,
2012-05-01, 03:27:04,VALID,998.839,VALID,0,VALID,95.5457,VALID,0,VALID,23.3482,VALID,165,VALID,0.832422,
2012-05-01, 03:28:04,VALID,998.824,VALID,0,VALID,95.5381,VALID,0,VALID,23.3482,VALID,160,VALID,0.978906,
2012-05-01, 03:29:04,VALID,998.806,VALID,0,VALID,95.5457,VALID,0,VALID,23.3287,VALID,160,VALID,1.0582,
2012-05-01, 03:30:04,VALID,998.818,VALID,0,VALID,95.5381,VALID,0,VALID,23.3287,VALID,160,VALID,0.867188,
2012-05-01, 03:31:04,VALID,998.815,VALID,0,VALID,95.5534,VALID,0,VALID,23.35,VALID,160,VALID,0.838281,
2012-05-01, 03:32:04,VALID,998.842,VALID,0,VALID,95.5381,VALID,0,VALID,23.3695,VALID,160,VALID,0.919141,
2012-05-01, 03:33:04,VALID,998.8,VALID,0,VALID,95.5305,VALID,0,VALID,23.3482,VALID,160,VALID,1.04414,
2012-05-01, 03:34:04,VALID,998.794,VALID,0,VALID,95.5152,VALID,0,VALID,23.389,VALID,160,VALID,1.05625,
2012-05-01, 03:35:04,VALID,998.802,VALID,0,VALID,95.5228,VALID,0,VALID,23.428,VALID,166,VALID,1.04688,
2012-05-01, 03:36:04,VALID,998.817,VALID,0,VALID,95.5228,VALID,0,VALID,23.4263,VALID,166,VALID,0.978516,
2012-05-01, 03:37:04,VALID,998.813,VALID,0,VALID,95.5381,VALID,0,VALID,23.4671,VALID,166,VALID,0.973437,
2012-05-01, 03:38:04,VALID,998.825,VALID,0,VALID,95.5152,VALID,0,VALID,23.4653,VALID,166,VALID,0.98125,
2012-05-01, 03:39:04,VALID,998.834,VALID,0,VALID,95.5228,VALID,0,VALID,23.4653,VALID,166,VALID,0.817187,
2012-05-01, 03:40:04,VALID,998.878,VALID,0,VALID,95.5152,VALID,0,VALID,23.4653,VALID,166,VALID,0.560938,
2012-05-01, 03:41:04,VALID,998.884,VALID,0,VALID,95.5381,VALID,0,VALID,23.4671,VALID,166,VALID,0.356641,
2012-05-01, 03:42:04,VALID,998.896,VALID,0,VALID,95.5305,VALID,0,VALID,23.4263,VALID,166,VALID,0.517969,
2012-05-01, 03:43:04,VALID,998.919,VALID,0,VALID,95.4923,VALID,0,VALID,23.389,VALID,99,VALID,0.784766,
2012-05-01, 03:44:04,VALID,998.941,VALID,0,VALID,95.4923,VALID,0,VALID,23.3677,VALID,81,VALID,0.973437,
2012-05-01, 03:45:04,VALID,998.961,VALID,0,VALID,95.4771,VALID,0,VALID,23.35,VALID,81,VALID,0.852734,
2012-05-01, 03:46:04,VALID,998.934,VALID,0,VALID,95.4771,VALID,0,VALID,23.311,VALID,88,VALID,0.880859,
2012-05-01, 03:47:04,VALID,998.947,VALID,0,VALID,95.4694,VALID,0,VALID,23.2897,VALID,92,VALID,0.852344,
2012-05-01, 03:48:04,VALID,998.956,VALID,0,VALID,95.4618,VALID,0,VALID,23.2702,VALID,92,VALID,0.724219,